"Pseudo-MPEC" for P11JyeL

Created 2023 Sep 19 16:22:33 UT using Find_Orb

Click here for an explanation of pseudo-MPECs

 
 Astrometry: 
     P11JyeL  C2023 09 12a?@p,Vv0N'ka#5d'B)N8_;L[q1Y$'_eY5,51==9Astrometryb%pF52
     P11JyeL  C2023 09 12nZC6=q)fU]8AppH/[#hp/W\redacted;LuOhTE*HYM8wxAS?QkWLF52
     P11JyeL  C2023 09 12aMNqbQ92;qHAFw0v:Vhclick:-f6:+A+GGCur_'1rB(@cNrM(nh*F52
     P11JyeL* C2023 09 14$Vyev5(0eherexWfBR^'3JS/,tM[F=:hHsxG8u6WF^UWJQ/c3w3fF51
     P11JyeL  C2023 09 14,?:YT`4LUt(Uu@Pe9aewpB!for+5(+!i%36_19Y9H.ZxsM9^$c%eF51
     P11JyeL  C2023 09 142xn)].r`BNv[`i;S7#3iQ:\iFJD16vf*%hBh`(dhXENH:(9ro]I0F51
     P11JyeL  C2023 09 14?8NebLQx=]\_%$yahg?gpA\x5TGrW17I:W2@.dCK!%0)cgKPalF(F51
     P11JyeL  C2023 09 15(x=\Fim1'=K^explanation)FFmiKoH5O+xq0NXO:+M2AM!i_(,dX09
     P11JyeL  C2023 09 15@50f\Sk+U[`$RpSdM\$2/6-]8vvt\`oqK5T$'9Z-tt2E?jL!I^d_X09

Station data:
(F51) Pan-STARRS 1, Haleakala  (N20.707234 W156.255910)  US/Hawaii.
   Observers J. Bulger, T. Lowe, A. Schultz, M. Willman. Measurers K.
   Chambers, S. Chastel, T. de Boer, L. Denneau, J. Fairlamb, H. Flewelling,
   M. Huber, C.-C. Lin, E. Magnier, Y. Ramanjooloo, R. Wainscoat, R. Weryk.
   1.8-m Ritchey-Chrétien + CCD.
(F52) Pan-STARRS 2, Haleakala  (N20.707382 W156.255910)  US/Hawaii.
   Observers J. Bulger, T. Dukes, T. Lowe, A. Schultz, M. Willman. Measurers
   K. Chambers, S. Chastel, T. de Boer, L. Denneau, J. Fairlamb, H.
   Flewelling, M. Huber, C.-C. Lin, E. Magnier, Y. Ramanjooloo, R. Wainscoat,
   R. Weryk. 1.8-m Ritchey-Chrétien + CCD.
(X09) Deep Random Survey, Rio Hurtado  (S30.526310 W70.853300)  Chile.

Orbital elements:  P11JyeL
   Perihelion 2023 Oct 6.68645 +/- 0.22 TT = 16:28:28 (JD 2460224.18645)
Epoch 2023 Sep 15.0 TT = JDT 2460202.5   Earth MOID: 0.2220   Ma: 0.0705
M 353.93076450 +/- 0.13             (J2000 ecliptic)             AutoNEOCP
n   0.27986307 +/- 0.00519          Peri.  216.12504 +/- 0.23
a   2.31475829 +/- 0.0286           Node   154.68249 +/- 0.036
e   0.4740056 +/- 0.00549           Incl.    4.62057 +/- 0.047
P   3.52                   H 24.52  G  0.15   U  9.2
q 1.21754984 +/- 0.00244    Q 3.41196674 +/- 0.0549
From 9 observations 2023 Sept. 12-15; mean residual 0".15
Residuals in arcseconds: 
230912 F52  .05-  .00     230914 F51  .03+  .09-    230914 F51  .22+  .06+    
230912 F52  .08+  .11-    230914 F51  .08-  .03+    230915 X09  .33-  .16+    
230912 F52  .03-  .12+    230914 F51  .18-  .03-    230915 X09  .36+  .05-    

Ephemerides (geocentric):
Date (UTC) HH   RA             Dec           delta  r     elong  mag " sig PA
---- --------  ------------   ------------  ------ ------ -----  --- --------
2023 09 19 16  23 51 22.295   -10 42 34.36  .22893 1.2311 170.7 22.3 1.92  85
2023 09 19 17  23 51 27.375   -10 43 04.61  .22889 1.2311 170.7 22.3 1.95  85
2023 09 19 18  23 51 32.458   -10 43 34.83  .22885 1.2310 170.7 22.3 1.97  85
2023 09 19 19  23 51 37.542   -10 44 05.03  .22881 1.2309 170.7 22.3 2.00  85
2023 09 19 20  23 51 42.628   -10 44 35.19  .22876 1.2309 170.6 22.3 2.02  85
2023 09 19 21  23 51 47.716   -10 45 05.33  .22872 1.2308 170.6 22.3 2.05  85
2023 09 19 22  23 51 52.806   -10 45 35.44  .22868 1.2307 170.6 22.3 2.08  85
2023 09 19 23  23 51 57.897   -10 46 05.52  .22864 1.2307 170.6 22.3 2.10  85
2023 09 20 00  23 52 02.991   -10 46 35.57  .22860 1.2306 170.5 22.3 2.13  85
2023 09 20 01  23 52 08.087   -10 47 05.59  .22856 1.2305 170.5 22.3 2.16  85
2023 09 20 02  23 52 13.185   -10 47 35.58  .22851 1.2305 170.5 22.3 2.18  85
2023 09 20 03  23 52 18.284   -10 48 05.54  .22847 1.2304 170.5 22.3 2.21  84
2023 09 20 04  23 52 23.386   -10 48 35.47  .22843 1.2303 170.5 22.3 2.24  84
2023 09 20 05  23 52 28.489   -10 49 05.37  .22839 1.2303 170.4 22.3 2.27  84
2023 09 20 06  23 52 33.595   -10 49 35.24  .22835 1.2302 170.4 22.3 2.29  84
2023 09 20 07  23 52 38.702   -10 50 05.08  .22831 1.2302 170.4 22.3 2.32  84
2023 09 20 08  23 52 43.811   -10 50 34.89  .22827 1.2301 170.4 22.3 2.35  84
2023 09 20 09  23 52 48.923   -10 51 04.67  .22823 1.2300 170.3 22.3 2.38  84
2023 09 20 10  23 52 54.036   -10 51 34.42  .22819 1.2300 170.3 22.3 2.41  84
2023 09 20 11  23 52 59.151   -10 52 04.13  .22815 1.2299 170.3 22.3 2.44  84
2023 09 20 12  23 53 04.267   -10 52 33.82  .22811 1.2298 170.3 22.3 2.47  84
2023 09 20 13  23 53 09.386   -10 53 03.47  .22808 1.2298 170.3 22.3 2.49  84
2023 09 20 14  23 53 14.507   -10 53 33.09  .22804 1.2297 170.2 22.3 2.52  84
2023 09 20 15  23 53 19.629   -10 54 02.68  .22800 1.2297 170.2 22.3 2.55  84
2023 09 20 16  23 53 24.754   -10 54 32.24  .22796 1.2296 170.2 22.3 2.58  84
2023 09 20 17  23 53 29.880   -10 55 01.76  .22792 1.2295 170.2 22.3 2.61  84
2023 09 20 18  23 53 35.008   -10 55 31.26  .22788 1.2295 170.1 22.3 2.64  84
2023 09 20 19  23 53 40.139   -10 56 00.72  .22785 1.2294 170.1 22.3 2.67  84
2023 09 20 20  23 53 45.271   -10 56 30.14  .22781 1.2293 170.1 22.3 2.70  84
2023 09 20 21  23 53 50.404   -10 56 59.54  .22777 1.2293 170.1 22.3 2.73  84
2023 09 20 22  23 53 55.540   -10 57 28.90  .22773 1.2292 170.1 22.3 2.76  84
2023 09 20 23  23 54 00.678   -10 57 58.23  .22770 1.2292 170.0 22.3 2.79  84
2023 09 21 00  23 54 05.817   -10 58 27.52  .22766 1.2291 170.0 22.3 2.83  84
2023 09 21 01  23 54 10.958   -10 58 56.79  .22762 1.2290 170.0 22.3 2.86  84
2023 09 21 02  23 54 16.102   -10 59 26.01  .22759 1.2290 170.0 22.3 2.89  84
2023 09 21 03  23 54 21.247   -10 59 55.21  .22755 1.2289 169.9 22.3 2.92  84
2023 09 21 04  23 54 26.394   -11 00 24.37  .22752 1.2289 169.9 22.3 2.95  83
2023 09 21 05  23 54 31.542   -11 00 53.49  .22748 1.2288 169.9 22.3 2.98  83
2023 09 21 06  23 54 36.693   -11 01 22.59  .22745 1.2287 169.9 22.3 3.02  83
2023 09 21 07  23 54 41.845   -11 01 51.64  .22741 1.2287 169.8 22.3 3.05  83
2023 09 21 08  23 54 46.999   -11 02 20.67  .22738 1.2286 169.8 22.3 3.08  83
2023 09 21 09  23 54 52.155   -11 02 49.65  .22734 1.2286 169.8 22.3 3.11  83
2023 09 21 10  23 54 57.313   -11 03 18.61  .22731 1.2285 169.8 22.3 3.15  83
2023 09 21 11  23 55 02.473   -11 03 47.52  .22727 1.2284 169.8 22.3 3.18  83
2023 09 21 12  23 55 07.635   -11 04 16.41  .22724 1.2284 169.7 22.3 3.21  83
2023 09 21 13  23 55 12.798   -11 04 45.25  .22720 1.2283 169.7 22.3 3.25  83
2023 09 21 14  23 55 17.963   -11 05 14.07  .22717 1.2283 169.7 22.3 3.28  83
2023 09 21 15  23 55 23.130   -11 05 42.84  .22714 1.2282 169.7 22.3 3.31  83